Find Kosmos-2592

NORAD ID: 65268 Int'l Des: 2025-182 Owner: MORF Country: RU operational
LEOCIRCULARRETROGRADESSO

当前视图

正在加载3D地球...

About Kosmos-2592

Kosmos-2592 (NORAD 65268) is a satellite launched Aug 21, 2025 by MORF of RU. It operates in LEO, CIRCULAR, RETROGRADE, SSO orbit with a mass of 520.00 kg.

即将过境

Passes for default location (London). Set your location on the main map for personalized predictions.

高度历史

Loading altitude history...

两行轨道根数

1 65268U 25182B 26194.57614501 .00054712 29869-5 13259-3 0 9997
2 65268 96.5815 125.1414 0007247 81.9334 278.2767 15.96432421 51900
Epoch: Jul 13, 2026 • Age: 27 hours

当前状态

高度 288.5 km
远地点 / 近地点 N/A
速度 7.73 km/s
星下点 -9.05°S, 58.29°W
发射日期 Aug 21, 2025
运行时间 0.8 years
类型 other

技术详情

分类 Payload
质量 520.00 kg
干质量 500.00 kg
总质量 520.00 kg
长度 3.00 m
直径 1.30 m
跨度 3.00 m
形状 Cyl + 2 Pan
制造商 VNIIEMI
平台类型 OO-MKA
阶段状态 In Orbit
所有者/国家 MORF/RU

Most Searched